K3TOW Weather Reports


time (UTC)temp
C
wind
direction
speed
KPH
gust
KPH
rain 1hr
cm
rain 24hr
cm
rain mn
cm
humidity
%
barometer
mb
20260504100212 1 0 0.0 0.0 0.00 0.00 0.00 92 1010.3
20260504082004 2 0 0.0 0.0 0.00 0.00 0.00 91 1010.7
20260504081003 2 0 0.0 0.0 0.00 0.00 0.00 91 1010.7
20260504050213 3 0 0.0 0.0 0.00 0.00 0.00 89 1010.7
20260504045003 3 0 0.0 0.0 0.00 0.00 0.00 88 1010.6
20260504044003 3 0 0.0 0.0 0.00 0.00 0.00 88 1010.7
20260504043003 3 0 0.0 0.0 0.00 0.00 0.00 88 1010.6
20260504042003 3 0 0.0 0.0 0.00 0.00 0.00 87 1010.5
20260504041214 4 0 0.0 0.0 0.00 0.00 0.00 87 1010.5
20260504040004 4 0 0.0 0.0 0.00 0.00 0.00 87 1010.4
20260504035003 4 0 0.0 0.0 0.00 0.00 0.00 86 1010.5
20260504034003 4 0 0.0 0.0 0.00 0.00 0.00 85 1010.3
20260504033003 5 0 0.0 0.0 0.00 0.00 0.00 85 1010.3
20260504032003 5 0 0.0 0.0 0.00 0.00 0.00 84 1010.3
20260504031003 5 0 0.0 0.0 0.00 0.00 0.00 84 1010.3
20260504030214 5 0 0.0 0.0 0.00 0.00 0.00 83 1010.2
20260504025214 5 0 0.0 0.0 0.00 0.00 0.00 83 1010.2
20260504024003 6 0 0.0 0.0 0.00 0.00 0.00 81 1010.3
20260504023003 6 0 0.0 0.0 0.00 0.00 0.00 80 1010.3
20260504022003 6 0 0.0 0.0 0.00 0.00 0.00 80 1010.2
20260504021003 6 0 0.0 0.0 0.00 0.00 0.00 78 1010.2
20260504020003 6 0 0.0 0.0 0.00 0.00 0.00 78 1010.2
20260504015003 7 0 0.0 0.0 0.00 0.00 0.00 74 1010.1
20260504014003 7 0 0.0 0.0 0.00 0.00 0.00 73 1010.1
20260504013213 7 0 0.0 0.0 0.00 0.00 0.00 72 1010.0
20260504012003 8 0 0.0 0.0 0.00 0.00 0.00 69 1009.9
20260504011003 8 0 0.0 0.0 0.00 0.00 0.00 68 1009.8
20260504010003 9 0 0.0 0.0 0.00 0.00 0.00 64 1009.5
20260504005004 10 0 0.0 0.0 0.00 0.00 0.00 63 1009.7
20260504004003 11 0 0.0 0.0 0.00 0.00 0.00 59 1009.6
20260504003003 11 0 0.0 0.0 0.00 0.00 0.00 56 1009.5
20260504002003 12 37 0.0 3.2 0.00 0.00 0.00 49 1009.4
20260504001003 12 37 1.6 3.2 0.00 0.00 0.00 48 1009.3
20260504000003 13 39 1.6 4.8 0.00 0.00 0.00 45 1009.2
20260503235003 13 67 1.6 12.9 0.00 0.00 0.00 43 1009.1
20260503234003 14 45 1.6 8.0 0.00 0.00 0.00 44 1009.0
20260503233003 14 8 1.6 12.9 0.00 0.00 0.00 41 1009.0
20260503232003 15 54 1.6 9.7 0.00 0.00 0.00 40 1008.9
20260503231003 15 29 4.8 16.1 0.00 0.00 0.00 37 1008.9
20260503230003 15 346 3.2 12.9 0.00 0.00 0.00 37 1009.0
20260503225003 15 36 3.2 17.7 0.00 0.00 0.00 36 1008.9
20260503224003 16 18 4.8 11.3 0.00 0.00 0.00 36 1008.9
20260503223003 15 23 4.8 14.5 0.00 0.00 0.00 38 1009.0
20260503222003 15 19 3.2 9.7 0.00 0.00 0.00 40 1008.9
20260503221003 15 32 3.2 11.3 0.00 0.00 0.00 39 1008.8
20260503220214 15 354 4.8 12.9 0.00 0.00 0.00 37 1008.8
20260503215003 15 1 3.2 11.3 0.00 0.00 0.00 36 1008.9
20260503214003 16 16 3.2 14.5 0.00 0.00 0.00 36 1008.7
20260503213003 16 22 4.8 20.9 0.00 0.00 0.00 36 1008.6
20260503212003 16 351 4.8 16.1 0.00 0.00 0.00 36 1008.6
20260503211003 16 7 6.4 20.9 0.00 0.00 0.00 34 1008.6
20260503210003 16 341 6.4 19.3 0.00 0.00 0.00 34 1008.6
20260503205003 16 339 4.8 14.5 0.00 0.00 0.00 35 1008.4
20260503204003 16 352 6.4 17.7 0.00 0.00 0.00 35 1008.5
20260503203213 15 353 6.4 16.1 0.00 0.00 0.00 34 1008.4
20260503202213 15 48 3.2 11.3 0.00 0.00 0.00 35 1008.5
20260503201003 15 348 4.8 14.5 0.00 0.00 0.00 34 1008.6
20260503200003 15 355 6.4 19.3 0.00 0.00 0.00 34 1008.7
20260503195003 15 328 3.2 17.7 0.00 0.00 0.00 33 1008.8
20260503194003 15 328 3.2 19.3 0.00 0.00 0.00 33 1008.9
20260503193003 15 352 3.2 9.7 0.00 0.00 0.00 33 1009.2
20260503192003 15 28 3.2 19.3 0.00 0.00 0.00 33 1009.3
20260503191003 15 359 4.8 17.7 0.00 0.00 0.00 34 1009.4
20260503190003 15 329 4.8 14.5 0.00 0.00 0.00 34 1009.4
20260503185003 15 353 4.8 14.5 0.00 0.00 0.00 34 1009.5
20260503184212 15 360 6.4 17.7 0.00 0.00 0.00 35 1009.8
20260503183003 14 339 4.8 22.5 0.00 0.00 0.00 32 1009.9
20260503182212 14 345 4.8 16.1 0.00 0.00 0.00 37 1009.9
20260503181212 14 352 4.8 12.9 0.00 0.00 0.00 36 1009.9
20260503180003 13 350 6.4 19.3 0.00 0.00 0.00 36 1010.3
20260503175003 14 8 6.4 17.7 0.00 0.00 0.00 37 1010.3
20260503174003 13 353 4.8 16.1 0.00 0.00 0.00 38 1010.4
20260503173003 13 339 6.4 17.7 0.00 0.00 0.00 37 1010.7
20260503172212 12 336 4.8 14.5 0.00 0.00 0.00 38 1010.7
20260503171214 12 330 6.4 16.1 0.00 0.00 0.00 38 1010.8
20260503170214 12 332 4.8 17.7 0.00 0.00 0.00 40 1010.9
20260503151003 10 338 4.8 16.1 0.00 0.00 0.00 40 1011.6
20260503131003 7 305 3.2 14.5 0.00 0.00 0.00 60 1012.2